Location: ????????
(55.3221°N, 39.3405°E)
Time: 11:33:34
(UTC+00:00)

Daily predictions for brighter satellites

Satellite Brightness Start Highest point End
(mag) Time Altitude Azimuth Time Altitude Azimuth Time Altitude Azimuth
Cosmos 2297 Rocket 2.5 17:05:10 10° NNW 17:10:45 56° NE 17:16:19 10° SE
Cosmos 1992 Rocket 4.0 17:05:36 10° SSW 17:10:47 67° ESE 17:15:59 10° NNE
Okean 2 Rocket 3.9 17:07:38 10° SSE 17:11:36 31° E 17:15:35 10° NNE
BREEZE-M R/B 3.4 17:10:11 10° WSW 17:12:24 22° S 17:14:26 10° SE
SPOT 5 3.6 17:09:10 10° SE 17:14:13 46° ENE 17:19:08 10° N
Cosmos 1503 Rocket 4.1 17:10:43 10° NNW 17:16:09 87° ENE 17:21:32 10° SSE
Cosmos 2369 Rocket 2.9 17:12:00 10° SW 17:17:37 62° NW 17:23:15 10° NNE
Cosmos 1354 Rocket 4.1 17:13:38 10° NNW 17:19:00 74° ENE 17:24:19 10° SE
NOSS 2-3 (E) 4.2 17:15:39 10° WSW 17:19:26 56° NNW 17:24:05 10° NE
Cosmos 2219 4.3 17:20:01 10° NNW 17:25:10 33° NE 17:30:15 10° ESE
ATLAS 5 CENTAUR R/B 1.1 17:23:00 10° SSW 17:26:19 52° SE 17:30:08 10° ENE
Terra 2.7 17:23:02 10° SE 17:27:15 33° ENE 17:31:29 10° N
BlueWalker 3 3.5 17:26:12 10° S 17:28:37 16° SE 17:31:02 10° ESE
USA 129 2.9 17:28:26 10° NE 17:28:34 10° ENE 17:28:34 10° ENE
Cosmos 332 Rocket 4.2 17:25:16 10° NNW 17:30:01 51° NE 17:34:40 10° SE
Cosmos 2098 Rocket 3.1 17:26:38 10° SSW 17:31:09 78° WNW 17:34:51 10° N
Iridium 4 Rocket 4.3 17:26:20 10° SSE 17:31:33 41° E 17:37:00 10° NNE
NOSS 8 (F) 4.2 17:28:38 10° NW 17:31:35 82° NE 17:34:51 12° SE
CARTOSAT-1 4.1 17:28:58 10° S 17:33:10 58° WSW 17:37:25 10° NNW
Sich 1 Rocket 3.8 17:30:41 10° SSE 17:34:56 49° E 17:39:16 10° NNE
Okean 1 Rocket 3.8 17:31:18 10° SSE 17:35:18 33° E 17:39:19 10° NNE
NOSS 2-2 (C) 4.1 17:33:21 10° WSW 17:36:22 43° NNW 17:39:43 10° NE
NOSS 3-2 (A) 4.4 17:30:01 10° WNW 17:36:26 52° NNE 17:44:13 10° E
Cosmos 2263 Rocket 3.5 17:32:27 10° NNW 17:37:23 30° NE 17:42:19 10° E
USA 245 4.2 17:32:44 10° SE 17:37:29 44° ENE 17:41:24 10° N
CZ-4B R/B 4.5 17:32:19 10° S 17:37:38 43° W 17:42:56 10° NNW
USA 267 3.3 17:31:15 10° ENE 17:37:49 69° SSE 17:44:22 10° SW
Cosmos 1455 4.4 17:35:27 10° SW 17:38:34 28° WNW 17:41:42 10° N
Okean-O 2.7 17:35:11 10° SSE 17:39:36 83° WSW 17:44:03 10° NNW
Nadezhda 3 Rocket 4.0 17:33:33 10° S 17:39:41 76° E 17:45:54 10° NNE
Ariane Rocket 3.6 17:36:14 11° SE 17:40:50 42° ENE 17:45:35 10° N
Cosmos 1605 Rocket 4.3 17:37:18 10° N 17:43:37 55° ENE 17:49:48 10° SSE
CZ-4C R/B 3.1 17:41:12 10° NNE 17:44:34 51° E 17:47:52 10° S
Cosmos 990 Rocket 4.2 17:42:15 10° NNW 17:47:24 58° ENE 17:51:50 14° SE
Cosmos 1437 Rocket 3.7 17:44:13 10° N 17:47:48 33° ENE 17:50:37 15° SE
Cosmos 44 4.5 17:44:32 10° S 17:48:52 25° ESE 17:53:10 10° ENE
Genesis I 4.0 17:46:26 10° WNW 17:49:52 40° SW 17:53:07 11° SSE
Aureole 1 Rocket 3.2 17:48:20 10° NNW 17:51:07 32° NE 17:53:03 16° ESE
Okean O Rocket 3.1 17:50:41 10° SSW 17:54:42 36° W 17:58:47 10° NNW
CZ-4 R/B 4.2 17:59:46 10° WSW 18:01:53 14° W 18:03:59 10° NW
CENTAUR R/B 3.4 17:54:43 10° NW 18:02:21 68° NNE 18:10:31 13° ESE
Cosmos 1536 Rocket 4.2 17:58:50 10° NNW 18:03:11 58° W 18:07:31 10° S
NOSS 3-1 (A) 3.1 18:01:14 10° SSW 18:06:18 66° SE 18:12:34 10° NE
IRS-1C Rocket 4.2 18:02:00 10° SSE 18:07:17 78° WSW 18:12:37 10° NNW
Resurs 01 Rocket 3.6 18:05:43 10° SSW 18:09:30 27° W 18:13:19 10° NW
MOS 1 Rocket 3.9 18:07:00 18° ESE 18:09:46 38° ENE 18:13:52 10° N
Cosmos 2058 3.7 18:08:46 10° N 18:12:31 35° ENE 18:14:40 20° ESE
Cosmos 1934 Rocket 4.3 18:08:21 10° NNW 18:14:28 68° W 18:20:38 10° S
USA 229 DEB 4.0 18:09:46 10° S 18:15:27 39° ESE 18:21:41 10° NE
USA 229 4.0 18:09:52 10° S 18:15:33 39° ESE 18:21:46 10° NE
ERS-1 Rocket 2.9 18:11:31 14° SSE 18:15:53 87° ENE 18:20:56 10° NNW
SPOT 3 Rocket 3.6 18:14:33 17° SSE 18:18:35 70° ENE 18:23:46 10° NNW
USA 281 4.2 18:13:37 10° S 18:19:50 43° WSW 18:26:06 10° NW
Cosmos 1339 Rocket 4.5 18:13:57 10° S 18:20:06 90° NW 18:26:13 10° NNE
Cosmos 2227 Rocket 2.2 18:20:50 10° NW 18:26:34 88° WSW 18:30:32 21° SSE
NOSS 3-1 (C) 3.7 18:21:38 10° WSW 18:26:55 69° NNW 18:33:31 10° NE
Cosmos 2151 Rocket 4.2 18:22:59 10° SSW 18:27:20 57° WNW 18:31:45 10° N
Cosmos 2344 4.4 18:21:07 10° W 18:28:13 53° NNW 18:36:21 10° ENE
Landsat 5 4.3 18:25:27 10° NNE 18:29:17 31° E 18:30:43 25° SE
Cosmos 1980 Rocket 3.5 18:31:51 18° ESE 18:32:39 19° E 18:36:28 10° ENE
ATLAS CENTAUR R/B 1.1 18:29:14 10° NW 18:32:59 87° SW 18:34:52 29° SE
Cosmos 292 Rocket 3.9 18:32:44 10° NNW 18:37:28 64° ENE 18:40:04 26° SE
Cosmos 1892 Rocket 3.5 18:33:52 10° NNW 18:38:13 80° W 18:41:02 21° S
Cosmos 1937 Rocket 3.8 18:35:12 10° NNW 18:40:29 59° ENE 18:43:32 25° SE
ATLAS 3B R/B 3.0 18:33:21 10° SW 18:40:39 85° NW 18:48:26 10° NE
COSMOS 2455 3.3 18:34:50 10° NW 18:40:41 53° WSW 18:44:51 19° S
Cosmos 1697 Rocket 3.2 18:37:21 18° SSE 18:41:02 39° ESE 18:46:15 10° NE
Cosmos 2360 4.4 18:36:22 10° S 18:41:50 50° ESE 18:47:19 10° NE
SL-4 R/B 2.7 18:39:27 10° W 18:42:33 28° SSW 18:43:07 26° S
H-2A R/B 4.0 18:42:12 17° E 18:43:35 20° ENE 18:46:24 10° N
Okean 1-7 Rocket 4.5 18:43:19 10° N 18:47:34 37° ENE 18:49:22 26° ESE
Okean 2 Rocket 4.4 18:45:17 10° SW 18:49:32 40° WNW 18:53:49 10° N
CZ-4C R/B 3.1 18:45:22 10° NW 18:52:08 66° SW 18:57:31 23° SSE
SPOT 5 4.3 18:47:21 10° SSW 18:52:18 38° W 18:57:10 10° NNW
NOSS 3-2 (C) 4.3 18:46:00 10° NW 18:52:40 60° NNE 18:59:43 14° ESE
Cosmos 1898 Rocket 3.5 18:47:43 10° NNW 18:53:02 88° ENE 18:55:50 28° SSE
MetOp-A 3.2 18:52:40 34° SSE 18:54:14 83° ENE 18:58:04 10° NNW
Cosmos 2297 Rocket 3.3 18:49:29 10° NW 18:54:39 37° WSW 18:58:47 15° S
Cosmos 1602 Rocket 4.3 18:51:32 10° N 18:55:38 39° ENE 18:57:08 29° ESE
Cosmos 1758 Rocket 4.2 18:52:01 10° N 18:56:17 44° ENE 18:57:55 31° ESE
Spot 2 Rocket 4.0 18:56:18 19° S 18:59:52 56° W 19:04:51 10° NNW
Cosmos 405 Rocket 2.5 18:59:06 26° SSW 19:01:08 87° WNW 19:04:52 10° NNE
USA 81 4.0 18:58:09 26° SSE 19:01:10 68° E 19:06:25 10° NNE
Cosmos 2228 3.9 19:01:42 28° ESE 19:02:13 29° E 19:05:52 10° NNE
Cosmos 1725 Rocket 4.4 18:56:41 10° N 19:02:42 50° ENE 19:05:48 27° SE
ARIANE 5 R/B 3.4 19:02:21 29° ESE 19:04:03 41° ENE 19:08:16 10° N
Cosmos 1459 Rocket 3.9 18:58:12 10° N 19:04:16 71° ENE 19:07:33 29° SSE
Cosmos 1656 3.7 18:58:56 10° SW 19:04:30 79° NW 19:10:02 10° NNE
Terra 2.6 19:01:25 17° SSW 19:04:46 45° W 19:09:20 10° NNW
Meteor 2-1 Rocket 4.4 19:03:28 29° SSE 19:06:00 51° E 19:11:20 10° NNE
BlueWalker 3 2.2 19:02:32 10° SW 19:06:07 44° SSE 19:06:07 44° SSE
Spot 1 4.1 19:03:35 10° NNE 19:08:20 79° ESE 19:10:50 26° S
Cosmos 2219 3.2 19:04:10 10° NW 19:09:51 75° WSW 19:12:38 31° SSE
ATLAS 5 CENTAUR R/B 2.7 19:06:57 10° W 19:10:22 38° NNW 19:14:23 10° NE
Cosmos 1455 Rocket 3.2 19:09:45 21° SSW 19:12:41 75° WNW 19:17:05 10° N
Ariane Rocket 4.0 19:16:23 17° SSW 19:19:50 39° W 19:24:35 10° NNW
Cosmos 858 Rocket 4.5 19:15:11 10° NNW 19:20:31 88° ENE 19:22:42 37° SSE
USA 267 3.3 19:14:25 10° ENE 19:21:00 80° N 19:27:34 10° W
Cosmos 1666 4.2 19:18:45 10° NNE 19:21:33 21° ENE 19:21:52 21° ENE
Cosmos 2263 Rocket 2.1 19:16:19 10° NW 19:21:59 85° WSW 19:24:25 35° SSE
ALOS 2 4.2 19:21:12 20° E 19:22:44 25° ENE 19:26:18 10° N
Cosmos 1763 Rocket 3.4 19:17:54 11° SSW 19:22:49 83° WNW 19:28:02 10° NNE
Cosmos 1437 Rocket 4.3 19:20:01 10° NNW 19:23:29 30° W 19:25:29 19° SW
NOSS 3-2 (A) 3.9 19:20:51 10° NW 19:27:54 82° SW 19:32:37 29° SE
Cosmos 2082 3.7 19:22:35 10° NW 19:28:17 80° WSW 19:30:38 37° SSE
Cosmos 2173 Rocket 4.1 19:22:34 10° NNW 19:28:59 81° W 19:32:25 30° S
Cosmos 44 3.5 19:24:10 10° SW 19:29:36 88° NW 19:34:53 10° NE
Cosmos 1862 3.7 19:26:03 10° N 19:29:51 46° ENE 19:30:23 42° E
Aureole 1 Rocket 4.2 19:31:56 10° WNW 19:34:07 18° WSW 19:34:29 18° WSW
Cosmos 1544 2.7 19:31:12 10° N 19:33:47 65° N 19:33:47 65° N
Meteor 2-3 Rocket 3.7 19:29:13 10° NNW 19:34:56 86° WSW 19:37:24 36° S
Cosmos 1271 Rocket 3.7 19:36:11 10° N 19:39:37 32° ENE 19:39:59 31° ENE
Cosmos 2322 Rocket 4.3 19:40:26 10° E 19:40:26 10° E 19:41:10 10° E
Cosmos 1500 3.7 19:39:19 10° N 19:42:39 40° ENE 19:42:39 40° ENE
Cosmos 540 Rocket 3.5 19:39:04 19° SSW 19:42:46 79° WNW 19:47:56 10° NNE
Meteor 2-15 4.5 19:36:57 10° NNW 19:43:07 78° W 19:45:56 34° S
Meteor 2-15 Rocket 4.4 19:40:12 10° NNW 19:46:23 88° ENE 19:48:58 38° SSE
Intercosmos 25 4.3 19:42:50 10° NNW 19:47:47 46° W 19:49:00 34° SW
MOS 1 Rocket 4.4 19:46:11 23° SW 19:48:00 33° W 19:52:00 10° NNW
Cosmos 1864 Rocket 4.4 19:42:12 10° NNW 19:48:25 85° W 19:51:03 37° S
Cosmos 2058 4.4 19:45:31 10° NNW 19:49:02 29° W 19:50:33 23° SW
Cosmos 1606 2.4 19:49:34 81° SE 19:49:40 83° E 19:53:19 10° NNE
Cosmos 1626 Rocket 4.3 19:46:22 10° NNW 19:50:37 47° W 19:52:02 34° SW
Cosmos 1802 Rocket 4.1 19:44:58 10° NNW 19:51:15 76° W 19:54:10 34° S
PSLV R/B 4.1 19:47:51 10° NNE 19:51:49 50° E 19:51:51 50° ESE
Spot 4 4.1 19:51:15 42° ESE 19:52:33 56° ENE 19:57:16 10° N
USA 238 DEB 4.1 19:45:31 10° NW 19:52:35 68° NNE 19:58:10 20° ESE
USA 238 4.1 19:45:37 10° NW 19:52:41 68° NNE 19:58:18 20° ESE
CENTAUR R/B 3.5 19:45:26 10° NW 19:53:17 58° SW 19:57:39 32° S
Cosmos 468 Rocket 4.2 19:51:31 18° SW 19:55:20 69° WNW 20:00:36 10° NNE
Cosmos 1844 4.4 19:51:14 10° NNW 19:56:51 49° NE 19:59:45 27° ESE
NOSS 3-1 (A) 4.3 19:52:02 10° W 19:57:26 51° NNW 20:04:08 10° NE
Cosmos 2016 Rocket 4.0 19:52:38 10° NNW 19:58:45 78° W 20:01:17 38° S
SL-16 R/B 3.6 19:59:19 22° E 19:59:19 22° E 20:03:27 10° NE
Cosmos 1953 Rocket 3.8 20:00:05 10° N 20:04:22 53° ENE 20:04:56 49° ESE
Cosmos 841 Rocket 3.3 20:03:36 44° SSW 20:05:16 81° ESE 20:10:26 10° NNE
Uosat 12 SS-18 rocket 3.9 20:00:48 10° NW 20:05:32 79° SW 20:06:08 65° SSE
USA 229 DEB 3.8 19:59:37 10° WSW 20:05:58 75° NW 20:13:07 10° NE
USA 229 3.8 19:59:43 10° WSW 20:06:05 75° NW 20:13:12 10° NE
Cosmos 1844 Rocket 3.0 20:01:00 10° NNW 20:06:35 58° NE 20:08:52 34° ESE
Spot 2 3.8 20:09:01 69° ESE 20:09:22 76° ENE 20:13:27 10° NNW
Cosmos 1125 Rocket 4.0 20:04:24 10° NNW 20:09:33 53° NE 20:11:22 36° ESE
Cosmos 1869 3.6 20:09:00 48° WSW 20:09:38 56° WNW 20:13:27 10° N
Cosmos 2227 Rocket 4.0 20:05:48 10° NW 20:09:53 20° W 20:12:21 16° SW
ATLAS CENTAUR R/B 3.3 20:07:54 10° WNW 20:09:58 16° WSW 20:09:58 16° WSW
MINOTAUR 4 R/B 4.5 20:10:24 10° N 20:13:03 49° NW 20:13:03 49° NW
Cosmos 1544 Rocket 4.3 20:12:25 32° SW 20:13:59 48° WNW 20:18:11 10° N
Cosmos 1980 Rocket 2.1 20:13:32 38° SSW 20:15:50 83° ESE 20:21:32 10° NE
H-2A R/B 2.5 20:18:14 57° WSW 20:18:17 57° WSW 20:22:02 10° NNW
Cosmos 2278 4.2 20:20:58 38° ESE 20:21:20 39° ESE 20:26:34 10° NE
Cosmos 2123 Rocket 4.1 20:21:07 33° SSW 20:24:06 74° WNW 20:30:29 10° N
Cosmos 1697 Rocket 3.3 20:19:18 10° SW 20:24:53 54° NW 20:30:28 10° NNE
Cosmos 1812 4.3 20:29:18 23° ENE 20:29:18 23° ENE 20:31:30 10° NNE
Cosmos 2151 2.8 20:25:46 10° N 20:30:01 80° ENE 20:30:13 77° ESE
Meteor 1-27 4.1 20:28:24 48° SSW 20:30:04 90° ESE 20:35:40 10° NNE
CZ-2C R/B 4.0 20:26:34 10° NNE 20:31:19 69° WNW 20:32:37 46° SW
ATLAS 3B R/B 3.9 20:25:03 10° W 20:32:17 49° NNW 20:39:49 10° ENE
Cosmos 2228 4.0 20:38:16 32° WSW 20:39:26 39° WNW 20:43:24 10° N
CZ-4C R/B 4.4 20:34:31 10° WNW 20:39:56 23° WSW 20:42:37 19° SW
ARIANE 5 R/B 3.7 20:39:49 31° WSW 20:40:32 33° W 20:44:38 10° NNW
NOSS 3-2 (C) 4.0 20:36:51 10° NW 20:43:56 65° SW 20:47:08 39° SSE
Cosmos 2344 4.3 20:36:38 10° WNW 20:44:03 56° NNE 20:53:27 10° E
Cosmos 2227 4.4 20:39:06 10° NW 20:44:42 57° WSW 20:45:50 48° SSW
Cosmos 2237 4.5 20:47:26 46° SE 20:48:00 47° ESE 20:53:28 10° NE
Cosmos 2369 3.7 20:45:58 36° SW 20:48:20 78° NW 20:54:02 10° NNE
Cosmos 2233 Rocket 4.4 20:42:40 10° NNW 20:48:39 53° W 20:50:44 38° SW
Cosmos 1076 Rocket 3.3 20:45:01 10° NNW 20:49:20 88° ENE 20:49:28 84° SSE
Cosmos 2150 Rocket 4.2 20:45:49 10° NNW 20:50:57 64° ENE 20:52:20 46° ESE
Cosmos 1825 Rocket 4.3 20:48:29 10° NNW 20:52:35 39° W 20:52:59 38° WSW
Cosmos 1606 Rocket 3.6 20:53:31 60° WSW 20:53:57 65° WNW 20:58:15 10° N
H-2A R/B 2.7 20:50:15 10° NNE 20:53:58 41° E 20:53:58 41° E
Cosmos 2298 Rocket 4.2 20:49:23 10° NNW 20:54:44 69° ENE 20:56:09 47° ESE
ATLAS 5 CENTAUR R/B 3.5 20:51:43 10° WNW 20:55:13 28° N 20:59:20 10° ENE
Cosmos 1666 3.6 20:52:51 10° NNW 20:55:38 37° WNW 20:55:38 37° WNW
Lacrosse 4 Rocket 1.6 20:57:46 56° ENE 20:57:46 56° ENE 21:01:04 10° NE
Cosmos 1464 Rocket 4.1 20:51:49 10° N 20:58:14 74° ENE 21:00:18 45° SSE
ALOS 2 2.8 20:58:36 58° WSW 20:58:47 58° WSW 21:03:09 10° NNW
Cosmos 1447 Rocket 4.4 20:57:57 48° SSW 20:59:51 87° W 21:06:04 10° N
SL-19 R/B 4.3 20:58:18 10° NNE 21:03:58 88° WNW 21:05:43 48° SSW
USA 267 3.2 20:57:24 10° E 21:04:00 85° NNE 21:10:35 10° WNW
Cosmos 2263 Rocket 3.8 21:01:15 10° WNW 21:05:08 19° W 21:06:06 19° WSW
Cosmos 1814 Rocket 3.9 21:04:55 58° SSW 21:05:58 87° WNW 21:11:10 10° NNE
Cosmos 2360 Rocket 3.0 21:09:23 34° ESE 21:09:46 35° ESE 21:14:49 10° NE
Helios 1A Rocket 4.1 21:09:10 30° E 21:09:49 31° ENE 21:13:22 10° N
Cosmos-2242 3.8 21:09:57 37° E 21:09:57 37° E 21:13:44 10° NNE
Cosmos 2058 Rocket 2.9 21:10:16 82° ESE 21:10:21 83° E 21:14:44 10° NNE
Aureole 3 Rocket 3.9 21:06:50 10° N 21:11:16 36° ENE 21:11:48 35° E
Cosmos 1891 Rocket 4.5 21:06:42 10° NNW 21:12:51 72° W 21:14:37 48° SSW
Cosmos 1513 Rocket 4.4 21:07:15 10° NNW 21:13:20 76° W 21:15:01 50° S
Cosmos 1271 Rocket 4.1 21:11:40 10° NNW 21:14:33 29° W 21:14:33 29° W
Meteor 1-20 Rocket 4.1 21:10:03 10° NNW 21:15:42 90° NW 21:17:02 55° SSE
Cosmos 1867 4.0 21:10:23 10° NW 21:15:51 60° NE 21:19:19 22° ESE
Cosmos 1461 4.1 21:12:32 10° NW 21:16:12 36° NNE 21:17:59 23° E
Cosmos 2084 Rocket 3.8 21:14:19 10° NW 21:17:19 48° WNW 21:17:19 48° WNW
Cosmos 2034 Rocket 4.0 21:14:06 10° N 21:20:19 74° ENE 21:22:16 45° SSE
Cosmos 2278 Rocket 3.7 21:15:34 10° NNW 21:20:43 33° NE 21:25:50 10° ESE
Cosmos 2333 Rocket 2.9 21:21:48 36° ESE 21:22:19 36° ESE 21:27:28 10° NE
Cosmos 2322 Rocket 2.4 21:22:13 49° SE 21:22:53 52° ESE 21:28:20 10° NE
Cosmos 1570 Rocket 4.0 21:22:21 59° SSE 21:22:58 65° ESE 21:28:09 10° NNE
Cosmos 2219 Rocket 3.5 21:24:01 25° ESE 21:24:34 25° ESE 21:29:02 10° NE
Lacrosse 5 2.9 21:26:47 32° ESE 21:26:47 32° ESE 21:30:13 10° ENE
Meteor 1-25 Rocket 4.1 21:21:51 10° NNW 21:27:31 88° WSW 21:28:46 56° S
SL-24 R/B 4.2 21:22:29 10° NNE 21:27:36 73° ESE 21:28:07 66° SSE
USA 32 4.5 21:31:37 43° SE 21:32:40 50° E 21:37:43 10° NNE
Cosmos 1726 Rocket 4.5 21:33:51 35° W 21:34:32 37° WNW 21:38:34 10° N
Cosmos 2221 4.1 21:36:52 23° E 21:37:20 23° E 21:40:43 10° NE
Cosmos 1809 Rocket 4.5 21:36:56 47° SSW 21:38:49 78° WNW 21:45:04 10° N
Cosmos 1844 4.1 21:35:32 10° NW 21:41:00 45° WSW 21:41:36 44° SW
Cosmos 1634 Rocket 4.4 21:34:59 10° N 21:41:16 60° ENE 21:43:58 34° SE
Geosat 3.9 21:40:26 58° SSE 21:41:27 86° SW 21:46:31 10° NW
Cosmos 1238 Rocket 3.6 21:42:25 38° WNW 21:42:25 38° WNW 21:45:42 10° N
SL-16 R/B 2.1 21:41:08 51° SW 21:42:39 88° WNW 21:48:22 10° NE
USA 238 DEB 4.1 21:36:35 10° NW 21:43:34 52° SW 21:45:33 42° S
SL-19 R/B 4.5 21:39:28 10° NNE 21:43:39 73° ESE 21:43:47 72° SE
USA 238 4.1 21:36:41 10° NW 21:43:40 52° SW 21:45:42 42° S
Cosmos 1782 2.9 21:49:03 63° ENE 21:49:03 63° ENE 21:52:33 10° NNE
Cosmos 1844 Rocket 3.4 21:45:13 10° NW 21:50:16 35° WSW 21:50:30 35° WSW
Cosmos 1125 Rocket 4.4 21:46:45 10° NW 21:51:25 34° WSW 21:51:35 33° WSW
Cosmos 1378 4.4 21:57:02 30° ENE 21:57:02 30° ENE 21:59:32 10° NNE
Resurs 1-4 Rocket 4.3 21:53:36 10° NE 21:56:43 16° E 21:59:26 11° ESE
Cosmos 1943 Rocket 3.7 21:53:22 10° NNW 21:58:35 36° NE 22:03:47 10° ESE
NOSS 2-1 (E) 4.0 22:00:22 39° NNE 22:00:22 39° NNE 22:02:34 10° NE
Cosmos 1980 Rocket 3.8 21:55:29 10° W 22:00:28 31° NW 22:05:30 10° NNE
PSLV R/B 4.1 21:56:04 10° N 22:00:36 56° WNW 22:01:26 48° WSW
NOSS 2-1 (C) 3.9 22:01:53 41° NNE 22:01:53 41° NNE 22:04:13 10° NE
Timation 2 Rocket 4.4 21:56:02 10° NW 22:02:17 45° WSW 22:03:23 41° SW
Cosmos 158 Rocket 3.7 22:01:42 64° S 22:02:24 79° ESE 22:07:28 10° NNE
NOSS 2-2 (E) 3.7 21:58:30 10° NW 22:02:25 77° NE 22:05:29 24° ESE
Cosmos 2084 4.1 22:01:57 36° WNW 22:02:59 46° NNW 22:06:42 10° NE
Cosmos 1812 3.8 22:03:29 34° WNW 22:03:29 34° WNW 22:06:38 10° N
Cosmos 2278 4.2 22:02:49 31° WSW 22:05:22 54° NW 22:10:58 10° NNE
Meteor 2-2 Rocket 4.3 22:06:08 50° S 22:07:48 85° ESE 22:13:49 10° NNE
Cosmos 1816 Rocket 4.4 22:06:57 47° SSW 22:08:51 78° WNW 22:15:03 10° N
USA 215 3.9 22:03:22 10° ENE 22:09:15 34° SE 22:10:14 33° SSE
Cosmos 489 Rocket 4.4 22:03:49 10° NNW 22:10:08 77° WSW 22:12:17 43° S
Cosmos 1933 3.2 22:12:30 88° N 22:12:30 88° N 22:16:26 10° NNE
Cosmos 1766 Rocket 3.6 22:09:16 10° N 22:13:36 70° ENE 22:14:15 59° SE
CZ-2C R/B 4.0 22:13:11 11° ESE 22:17:53 35° ENE 22:22:40 10° N
Cosmos 1743 2.9 22:15:18 10° N 22:18:59 59° ENE 22:19:05 59° E
SL-16 R/B 4.1 22:14:24 10° ESE 22:19:49 33° NE 22:25:18 10° N
NOSS 2-2 (D) 3.6 22:16:47 10° NW 22:20:39 78° NE 22:25:59 10° SE
NOSS 2-3 (C) 4.3 22:16:23 10° NW 22:21:33 86° NE 22:28:39 10° SE
Meteor 1-5 Rocket 4.3 22:16:00 10° NNW 22:21:46 66° W 22:23:22 47° SSW
Cosmos 2208 Rocket 4.3 22:21:10 43° WSW 22:22:50 66° WNW 22:28:18 10° NNE
Cosmos 1726 3.7 22:20:36 10° NNE 22:23:16 24° ENE 22:23:57 22° E
Cosmos 1515 3.7 22:24:45 68° NNW 22:24:45 68° NNW 22:27:59 10° N
ATLAS 3B R/B 3.9 22:17:07 10° WNW 22:24:30 49° NNE 22:32:05 10° E
Cosmos 2279 Rocket 4.0 22:18:29 10° N 22:24:45 78° ENE 22:27:37 34° SSE
NOSS 3-4 (A) 3.3 22:25:04 48° S 22:26:30 64° SE 22:32:38 10° NE
NOSS 3-4 (C) 3.3 22:25:07 48° S 22:26:33 63° SE 22:32:41 10° NE
NOSS 2-3 (D) 4.3 22:21:29 10° NW 22:26:37 87° NE 22:33:41 10° SE
H-2A R/B 3.3 22:26:13 10° N 22:29:54 31° WNW 22:30:48 28° W
NOSS 2-1 (D) 3.9 22:29:54 36° NNW 22:29:57 36° NNW 22:32:53 10° NE
ADEOS II 4.2 22:28:03 10° NE 22:31:44 19° E 22:35:12 11° SE
Cosmos 44 Rocket 3.6 22:32:11 50° S 22:33:09 59° SE 22:38:14 10° NE
Meteor 1-26 Rocket 4.3 22:31:16 45° S 22:33:10 81° ESE 22:39:06 10° NNE
Lacrosse 4 Rocket 3.1 22:33:41 18° WNW 22:35:45 27° NNW 22:39:13 10° NNE
Cosmos 2237 Rocket 4.1 22:34:53 15° SE 22:37:33 20° E 22:41:33 10° NE
ATLAS 5 CENTAUR R/B 2.7 22:35:45 10° NW 22:39:57 48° NNE 22:45:08 10° ESE
COSMOS 2428 3.4 22:39:20 33° SSE 22:41:12 43° ESE 22:46:34 10° NE
Nimbus 7 Rocket 4.3 22:36:45 10° NNE 22:42:39 83° WNW 22:44:50 41° SSW
Tsikada Rocket 4.0 22:40:53 40° SSW 22:43:10 70° WNW 22:49:20 10° N
Helios 1A Rocket 3.7 22:44:37 35° W 22:44:37 35° W 22:47:54 10° NNW
GEOS 3 Rocket 3.5 22:40:54 19° SE 22:44:46 76° SW 22:50:05 10° NW
Cosmos 773 Rocket 4.0 22:45:07 46° SW 22:46:43 79° WNW 22:52:01 10° NNE
Cosmos-2242 4.1 22:46:33 29° W 22:47:14 31° WNW 22:51:01 10° N
USA 267 3.2 22:40:51 10° SE 22:47:18 58° SSW 22:53:47 10° WNW
Meteor 1-14 Rocket 4.1 22:42:23 10° NNW 22:47:57 84° WSW 22:50:13 38° S
Cosmos 1812 Rocket 4.3 22:48:04 38° W 22:48:53 42° WNW 22:53:09 10° N
Cosmos 2322 3.9 22:50:35 39° S 22:52:35 61° ESE 22:58:14 10° NE
NOSS 2-3 (E) 4.3 22:48:00 10° NW 22:53:15 70° SW 23:00:27 10° SE
Cosmos 2360 Rocket 2.5 22:51:06 33° WSW 22:53:32 59° NW 22:59:09 10° NNE
Cosmos 1461 3.5 22:50:51 10° NW 22:53:33 38° W 22:53:33 38° W
IRIDIUM 103 4.4 22:50:12 10° N 22:55:27 78° E 22:57:45 34° SSE
Okean 3 Rocket 3.5 22:51:13 10° NNW 22:55:47 81° W 22:56:56 50° S
Cosmos 2333 4.2 22:54:04 38° SW 22:56:14 74° NW 23:01:53 10° NNE
Aureole 3 Rocket 4.3 22:54:31 10° NNW 22:58:11 24° W 22:58:11 24° W
Cosmos 2344 3.9 22:51:02 10° NW 22:59:02 74° SW 23:09:54 10° SE
Cosmos 1867 3.9 22:54:13 10° NW 22:59:21 42° WSW 22:59:55 41° SW
Cosmos 783 Rocket 4.4 22:58:25 44° SSW 23:00:09 87° WNW 23:05:24 10° NNE
RESURS DK-1 3.3 23:01:49 32° SE 23:02:34 35° ESE 23:06:18 10° NE
H-2A R/B 3.8 22:59:00 10° NNE 23:03:03 56° ESE 23:04:08 41° SSE
Cosmos 2278 Rocket 2.1 22:59:38 10° NW 23:05:20 75° WSW 23:09:02 22° SSE
Cosmos 2333 Rocket 2.6 23:03:47 30° WSW 23:06:25 57° NW 23:12:02 10° NNE
Cosmos 2322 Rocket 3.0 23:04:00 23° WSW 23:07:06 43° NW 23:12:28 10° NNE
Cosmos 2219 Rocket 2.2 23:05:42 37° SW 23:07:58 78° NW 23:13:37 10° NNE
NOSS 2-2 (C) 3.7 23:04:11 10° NW 23:08:11 60° SW 23:13:43 10° SSE
Lacrosse 5 1.8 23:05:56 34° WSW 23:08:13 87° SSE 23:13:22 10° ENE
Cosmos 1538 Rocket 4.4 23:08:48 32° S 23:11:03 55° ESE 23:16:15 10° NNE
CZ-2D R/B 2.8 23:06:53 10° NNE 23:12:07 49° E 23:15:11 24° SSE
BREEZE-M DEB (TANK) 3.6 23:13:45 35° SSE 23:13:45 35° SSE 23:19:01 10° E
Cosmos 192 4.2 23:08:47 10° NNW 23:13:41 76° WSW 23:16:12 29° SSE
IRIDIUM 106 4.2 23:08:31 10° N 23:13:46 79° W 23:16:01 35° S
Cosmos 2221 2.9 23:13:29 42° WSW 23:14:24 50° WNW 23:18:35 10° N
Cosmos 1408 Rocket 3.4 23:11:50 10° NNW 23:16:11 85° W 23:17:46 39° S
Cosmos 2056 Rocket 4.2 23:12:05 10° NNW 23:17:24 56° NE 23:22:43 10° SE
Meteor 1-11 Rocket 3.6 23:13:21 10° NNW 23:18:58 90° SW 23:22:33 23° SSE
Cosmos 1842 Rocket 3.5 23:21:55 42° SSW 23:23:25 84° WNW 23:27:55 10° N
ATLAS 2AS CENTAUR R/B 4.4 23:21:20 11° SSE 23:26:39 24° ESE 23:32:06 10° ENE
Cosmos 972 Rocket 4.1 23:24:38 34° SW 23:26:51 67° WNW 23:31:49 10° NNE
CZ-2C R/B 4.0 23:22:32 10° NNE 23:27:29 44° E 23:31:22 17° SSE
SL-16 R/B 3.7 23:22:57 11° W 23:27:31 29° NNW 23:32:26 10° NNE
MOZ.5/SAFIR/RUBIN 5/SL-8 4.4 23:27:03 34° WSW 23:27:57 37° W 23:32:22 10° NNW
Cosmos 1624 Rocket 4.4 23:23:21 10° NNW 23:28:35 64° ENE 23:33:45 10° SE
Cosmos 1733 3.5 23:25:15 10° N 23:28:50 57° ENE 23:30:51 23° SSE
Cosmos 1378 4.4 23:30:16 23° WNW 23:30:30 23° WNW 23:33:16 10° NNW
SL-16 R/B 4.4 23:28:09 10° SE 23:31:41 17° E 23:35:12 10° ENE
Cosmos 1500 Rocket 3.5 23:30:52 10° NNW 23:35:20 76° W 23:37:28 30° S
Cosmos 1805 Rocket 3.4 23:31:37 10° NNW 23:35:58 87° W 23:38:22 26° S
IDEFIX/ARIANE 42P 2.5 23:31:47 10° NNE 23:37:01 89° E 23:39:49 29° SSW
Resurs 1-4 Rocket 2.2 23:32:05 10° NNE 23:37:26 77° ESE 23:40:31 26° S
Sich 1 2.9 23:34:53 10° NNW 23:39:09 83° W 23:41:25 27° S
NOSS 3-1 (A) 4.2 23:34:47 10° NW 23:41:25 68° NNE 23:49:40 10° ESE
Cosmos 1536 2.9 23:37:51 10° NNW 23:41:38 51° W 23:42:36 40° SW
Cosmos 1943 Rocket 2.1 23:37:07 10° NW 23:42:45 68° WSW 23:48:23 10° SSE
ALOS 3.5 23:42:11 10° NNE 23:46:29 36° E 23:50:33 11° SSE
NOSS 0 Rocket 4.0 23:43:20 25° SSW 23:47:00 71° ESE 23:53:10 10° NE
Okean 1 3.1 23:48:49 32° S 23:50:29 82° E 23:54:19 10° NNE
Intercosmos 25 Rocket 4.5 23:47:34 10° N 23:50:52 43° ENE 23:55:20 10° SSE
Gbstr 26 Del rocket 3.2 23:49:29 34° SW 23:50:52 47° S 23:54:37 10° E
USA 215 3.2 23:46:22 10° ENE 23:52:57 74° SSE 23:57:34 21° WSW
COBE Rocket 3.7 23:50:22 10° NNE 23:55:03 82° WNW 23:57:42 26° SSW
Cosmos 1726 2.8 23:53:56 10° NNW 23:56:41 29° W 23:56:41 29° W
